DL3NDS-13 Weather Reports


time (UTC)temp
F
wind
direction
speed
knots
gust
knots
rain 1hr
in
rain 24hr
in
rain mn
in
humidity
%
barometer
mb
20211208141541 30 56 2.6 5.2 0.00 0.00 0.00 93 998.2
20211208140541 30 61 2.6 5.2 0.00 0.00 0.00 93 998.6
20211208135541 30 92 2.6 5.2 0.00 0.00 0.00 93 998.6
20211208134541 30 81 2.6 7.0 0.00 0.00 0.00 93 998.7
20211208133541 31 87 2.6 5.2 0.00 0.00 0.00 93 998.6
20211208132541 30 85 0.9 9.6 0.00 0.00 0.00 93 998.5
20211208131541 30 80 2.6 5.2 0.00 0.00 0.00 93 998.4
20211208130541 30 70 2.6 7.0 0.00 0.00 0.00 92 998.6
20211208125541 31 67 2.6 5.2 0.00 0.00 0.00 93 998.7
20211208124541 30 92 0.9 5.2 0.00 0.00 0.00 93 998.7
20211208123541 30 84 2.6 7.0 0.00 0.01 0.00 93 998.7
20211208122541 30 119 0.9 3.5 0.00 0.01 0.00 93 999.1
20211208121541 30 0 0.0 7.8 0.00 0.01 0.00 93 999.2
20211208120541 30 0 0.0 9.6 0.00 0.01 0.00 93 999.1
20211208115541 30 118 7.0 10.4 0.00 0.01 0.00 93 998.7
20211208114541 30 98 2.6 5.2 0.00 0.01 0.00 93 998.9
20211208113541 30 94 2.6 5.2 0.00 0.01 0.00 93 999.1
20211208112541 30 104 3.5 9.6 0.00 0.01 0.00 93 999.1
20211208111541 30 102 3.5 9.6 0.00 0.01 0.00 93 999.1
20211208110541 30 104 3.5 9.6 0.00 0.01 0.00 93 999.2
20211208105541 30 121 3.5 10.4 0.00 0.01 0.00 93 999.4
20211208104541 30 120 2.6 7.8 0.00 0.01 0.00 93 999.4
20211208103541 30 97 3.5 7.0 0.00 0.01 0.00 93 999.5
20211208102541 30 96 2.6 7.0 0.00 0.01 0.00 93 999.5
20211208101541 30 109 2.6 7.8 0.00 0.01 0.00 92 999.9
20211208100541 29 97 3.5 9.6 0.00 0.01 0.00 92 999.7
20211208095541 29 102 2.6 7.8 0.00 0.01 0.00 92 1000.1
20211208094541 29 102 3.5 7.8 0.00 0.01 0.00 92 1000.1
20211208093541 29 101 3.5 7.8 0.00 0.01 0.00 92 1000.1
20211208092541 29 112 3.5 7.8 0.00 0.01 0.00 91 1000.2
20211208091541 29 107 2.6 7.0 0.00 0.01 0.00 92 1000.2
20211208090541 29 117 0.9 9.6 0.00 0.01 0.00 92 1000.2
20211208085541 29 114 3.5 9.6 0.00 0.01 0.00 92 1000.4
20211208084541 29 100 2.6 9.6 0.00 0.01 0.00 92 1000.4
20211208083541 29 100 2.6 7.0 0.00 0.01 0.00 92 1000.4
20211208082541 29 90 3.5 10.4 0.00 0.01 0.00 91 1000.4
20211208081541 29 78 0.9 12.2 0.00 0.01 0.00 91 1000.2
20211208080541 29 105 3.5 10.4 0.00 0.01 0.00 91 1000.4
20211208075541 28 104 0.9 9.6 0.00 0.01 0.00 92 1000.5
20211208074541 28 119 3.5 5.2 0.00 0.01 0.00 92 1000.4
20211208073541 28 105 2.6 7.0 0.00 0.01 0.00 92 1000.4
20211208072541 28 98 0.9 7.8 0.00 0.01 0.00 92 1000.6
20211208071541 28 110 2.6 5.2 0.00 0.01 0.00 91 1000.6
20211208070541 28 0 0.0 5.2 0.00 0.01 0.00 91 1000.7
20211208065541 28 0 0.0 3.5 0.00 0.01 0.00 91 1000.7
20211208064540 28 0 0.0 3.5 0.00 0.01 0.00 91 1000.7
20211208063540 28 0 0.0 3.5 0.00 0.01 0.00 91 1000.7
20211208062541 28 96 2.6 5.2 0.00 0.01 0.00 92 1000.6
20211208061541 28 130 2.6 5.2 0.00 0.01 0.00 92 1000.7
20211208060540 28 121 2.6 7.8 0.00 0.01 0.00 92 1000.7
20211208055540 28 85 0.9 9.6 0.00 0.01 0.00 92 1000.7
20211208054540 28 118 2.6 5.2 0.00 0.01 0.00 92 1000.7
20211208053541 28 116 2.6 5.2 0.00 0.01 0.00 92 1000.7
20211208052540 28 122 0.9 3.5 0.00 0.01 0.00 92 1000.6
20211208051541 27 99 2.6 5.2 0.00 0.01 0.00 92 1000.7
20211208050540 27 0 0.0 3.5 0.00 0.01 0.00 93 1000.2
20211208045540 27 0 0.0 5.2 0.00 0.01 0.00 93 1000.1
20211208044540 27 0 0.0 3.5 0.00 0.01 0.00 93 1000.2
20211208043540 27 0 0.0 7.8 0.00 0.01 0.00 93 1000.2
20211208042540 27 124 3.5 7.8 0.00 0.01 0.00 93 1001.5
20211208041540 27 93 2.6 3.5 0.00 0.01 0.00 93 1001.2
20211208040540 27 107 0.9 3.5 0.00 0.01 0.00 93 1001.4
20211208035540 27 134 0.9 5.2 0.00 0.01 0.00 94 1001.5
20211208034540 27 163 0.9 5.2 0.00 0.01 0.00 94 1001.6
20211208033540 26 106 0.9 3.5 0.00 0.01 0.00 94 1001.5
20211208032540 26 0 0.0 3.5 0.00 0.01 0.00 94 1001.2
20211208031540 26 88 0.9 3.5 0.00 0.01 0.00 94 1001.2
20211208030540 26 0 0.0 3.5 0.00 0.01 0.00 93 1001.4
20211208025540 26 0 0.0 0.9 0.00 0.01 0.00 93 1001.6
20211208024540 26 79 0.9 3.5 0.00 0.01 0.00 94 1001.6
20211208023540 26 100 0.9 3.5 0.00 0.01 0.00 94 1001.6
20211208022540 26 0 0.0 3.5 0.00 0.01 0.00 94 1001.7
20211208021540 26 109 0.9 7.0 0.00 0.01 0.00 94 1001.9
20211208020540 27 85 2.6 5.2 0.00 0.01 0.00 94 1002.1
20211208015540 27 72 2.6 5.2 0.00 0.01 0.00 94 1002.2
20211208014540 27 0 0.0 2.6 0.00 0.01 0.00 94 1002.5
20211208013540 27 0 0.0 2.6 0.00 0.01 0.00 94 1002.7
20211208012540 27 0 0.0 2.6 0.00 0.01 0.00 94 1002.7
20211208011540 28 118 0.9 7.0 0.00 0.01 0.00 94 1002.6
20211208010540 28 88 5.2 10.4 0.00 0.01 0.00 94 1002.4
20211208005540 28 96 0.9 5.2 0.00 0.01 0.00 94 1002.5
20211208004540 28 90 2.6 9.6 0.00 0.01 0.00 94 1002.5
20211208003540 28 79 2.6 12.2 0.00 0.01 0.00 94 1002.6
20211208002540 28 80 5.2 10.4 0.00 0.01 0.00 94 1002.7
20211208001540 28 92 3.5 7.0 0.00 0.01 0.00 94 1003.2
20211208000540 28 87 0.9 7.0 0.00 0.01 0.00 94 1003.6
20211207235540 29 93 2.6 5.2 0.00 0.01 0.00 94 1003.9
20211207234540 29 82 0.9 7.8 0.00 0.01 0.00 94 1004.0
20211207233540 29 102 2.6 7.8 0.00 0.01 0.00 93 1003.9
20211207232540 29 102 2.6 5.2 0.00 0.01 0.00 93 1004.0
20211207231540 29 109 2.6 7.8 0.00 0.01 0.00 93 1004.1
20211207230540 29 152 0.9 3.5 0.00 0.01 0.00 93 1004.2
20211207225540 29 142 0.9 5.2 0.00 0.01 0.00 93 1004.5
20211207224540 29 157 2.6 5.2 0.00 0.01 0.00 93 1004.6
20211207223540 29 146 2.6 9.6 0.00 0.01 0.00 94 1004.7
20211207222540 29 142 2.6 9.6 0.00 0.01 0.00 94 1005.0
20211207221540 29 148 3.5 7.8 0.00 0.01 0.00 94 1005.1
20211207220540 29 135 2.6 7.8 0.00 0.01 0.00 94 1005.2
20211207215540 29 130 0.9 9.6 0.00 0.01 0.00 94 1005.4
20211207214540 28 114 2.6 5.2 0.00 0.01 0.00 93 1005.4
20211207213540 28 111 0.9 3.5 0.00 0.01 0.00 93 1005.6
20211207212540 28 94 0.9 5.2 0.00 0.01 0.00 93 1005.7
20211207211540 29 0 0.0 5.2 0.00 0.01 0.00 93 1005.7
20211207210540 29 0 0.0 3.5 0.00 0.01 0.00 93 1006.2
20211207205540 30 0 0.0 5.2 0.00 0.01 0.00 93 1006.4
20211207204540 30 155 2.6 5.2 0.00 0.01 0.00 93 1006.4
20211207203540 30 0 0.0 10.4 0.00 0.01 0.00 93 1006.4
20211207202540 29 140 0.9 5.2 0.00 0.01 0.00 93 1006.6
20211207201540 30 0 0.0 0.0 0.00 0.01 0.00 93 1006.6
20211207200540 30 0 0.0 0.0 0.00 0.01 0.00 92 1006.7
20211207195540 30 0 0.0 0.0 0.00 0.01 0.00 92 1006.7
20211207194540 30 0 0.0 0.0 0.00 0.01 0.00 93 1006.7
20211207193540 31 0 0.0 0.0 0.00 0.01 0.00 93 1007.0
20211207192540 31 0 0.0 0.0 0.00 0.01 0.00 93 1006.9
20211207191540 31 0 0.0 3.5 0.00 0.01 0.00 93 1006.9
20211207190540 31 216 0.9 3.5 0.00 0.01 0.00 93 1007.0
20211207185540 32 216 0.9 3.5 0.00 0.01 0.00 93 1007.2
20211207184540 32 216 0.9 3.5 0.00 0.01 0.00 93 1007.4
20211207183540 32 215 0.9 7.0 0.00 0.01 0.00 93 1007.6
20211207182540 32 235 2.6 5.2 0.00 0.01 0.00 93 1007.5
20211207181540 33 216 0.9 7.0 0.00 0.01 0.00 92 1007.6
20211207180540 33 235 3.5 7.0 0.00 0.01 0.00 93 1007.6
20211207175540 33 220 2.6 7.0 0.00 0.01 0.00 92 1007.7
20211207174540 33 249 0.9 3.5 0.00 0.01 0.00 92 1007.9
20211207173540 33 254 2.6 5.2 0.00 0.01 0.00 92 1008.1
20211207172540 33 238 3.5 9.6 0.00 0.01 0.00 92 1008.2
20211207171540 33 226 5.2 9.6 0.00 0.01 0.00 92 1008.2
20211207170540 33 227 5.2 12.2 0.00 0.01 0.00 92 1008.2
20211207165540 33 241 7.0 13.9 0.00 0.01 0.00 92 1008.2
20211207164540 33 234 7.0 12.2 0.00 0.01 0.00 92 1008.2
20211207163540 33 260 2.6 13.9 0.00 0.01 0.00 92 1008.5
20211207162540 33 235 3.5 7.8 0.00 0.01 0.00 92 1008.7
20211207161540 33 230 2.6 7.0 0.00 0.01 0.00 92 1008.6
20211207160540 33 240 3.5 7.8 0.00 0.01 0.00 92 1008.6
20211207155540 33 221 3.5 13.9 0.00 0.01 0.00 93 1008.6
20211207154540 33 248 7.0 10.4 0.00 0.01 0.00 93 1008.5
20211207153540 33 244 7.0 13.9 0.00 0.01 0.00 93 1008.6
20211207152540 33 250 5.2 12.2 0.00 0.01 0.00 93 1008.6
20211207151540 33 223 3.5 9.6 0.00 0.01 0.00 93 1008.2
20211207150540 33 257 5.2 16.5 0.00 0.01 0.00 93 1008.5
20211207145540 33 279 2.6 9.6 0.00 0.01 0.00 93 1008.5
20211207144540 33 252 0.9 3.5 0.00 0.00 0.00 93 1008.6
20211207143540 33 234 0.9 5.2 0.00 0.00 0.00 93 1008.5
20211207142540 33 208 2.6 7.0 0.00 0.00 0.00 93 1008.2